Location: *
(35.2348°S, 91.3916°E)
Time: 06:07:08
(UTC+00:00)

Cosmos 1356 Rocket - Pass Details

Date: 23 October 2019
Orbit: 544 x 598 km, 81.2° (Epoch: 19 November)

Event Time Altitude Azimuth Distance (km) Brightness Sun altitude
Rises 13:45:17 0° 184° (S) 2,797 7.4 -17.8°
Reaches altitude 10° 13:47:33 10° 179° (S) 1,882 6.4 -18.2°
Maximum altitude 13:51:38 57° 100° (E) 669 3.4 -18.9°
Enters shadow 13:52:21 48° 59° (ENE) 736 3.5 -19.0°
